Marion, VA

2:19 AM EDT on July 24, 2017 (GMT -0400)
Mountain Empire

Weather History for KMKJ - November, 2011

Change the Weather History Date:

Sunday, November 6, 2011

  Actual Average (KBLF) Record (KBLF)
Temperature  
Mean Temperature 46 °F -  
Max Temperature 60 °F 51 °F 75 °F (2015)
Min Temperature 32 °F 36 °F 19 °F (1967)
Degree Days  
Heating Degree Days 19    
Moisture  
Dew Point 32 °F    
Average Humidity 69    
Maximum Humidity 93    
Minimum Humidity 42    
Precipitation  
Precipitation 0.00 in - - ()
Sea Level Pressure  
Sea Level Pressure 30.41 in    
Wind  
Wind Speed 8 mph (ENE)    
Max Wind Speed 12 mph    
Max Gust Speed -    
Visibility 10 miles    
Events      
Averages and records for this station are not official NWS values.
T = Trace of Precipitation, MM = Missing Value Source: NWS Daily Summary

Daily Weather History Graph

Daily Weather History Graph

Search for Another Location

Airport or City:

Trip Planner

Search our weather history database for the weather conditions in past years. The results will help you decide how hot, cold, wet, or windy it might be!

Date:

Astronomy

Nov. 06, 2011 Rise Set
Actual Time 6:54 AM EST 5:23 PM EST
Civil Twilight 6:27 AM EST 5:50 PM EST
Nautical Twilight 5:56 AM EST 6:21 PM EST
Astronomical Twilight 5:25 AM EST 6:51 PM EST
Moon 3:02 PM EST (11/6) 3:04 AM EST (11/6)
Length of Visible Light 11h 23m
Length of Day
10h 29m
Waxing Gibbous, 85% of the Moon is Illuminated
Nov 6
Waxing Gibbous
Nov 10
Full
Nov 18
Last Quarter
Nov 25
New
Dec 2
First Quarter

Hourly Weather History & Observations

Time (EST) Temp. Windchill Dew Point Humidity Pressure Visibility Wind Dir Wind Speed Gust Speed Precip Events Conditions
12:15 AM 37.4 °F 30.8 °F 26.6 °F 65% 30.40 in 10.0 mi ENE 9.2 mph - N/A   Clear
12:35 AM 35.6 °F 27.5 °F 26.6 °F 70% 30.39 in 10.0 mi NE 11.5 mph - N/A   Clear
12:55 AM 35.6 °F 28.0 °F 26.6 °F 70% 30.39 in 10.0 mi ENE 10.4 mph - N/A   Clear
1:15 AM 35.6 °F 28.0 °F 26.6 °F 70% 30.39 in 10.0 mi NE 10.4 mph - N/A   Clear
1:35 AM 35.6 °F 28.0 °F 26.6 °F 70% 30.40 in 10.0 mi NE 10.4 mph - N/A   Clear
1:55 AM 35.6 °F 27.5 °F 26.6 °F 70% 30.40 in 10.0 mi NE 11.5 mph - N/A   Clear
1:15 AM 33.8 °F 25.8 °F 26.6 °F 75% 30.40 in 10.0 mi NE 10.4 mph - N/A   Clear
1:35 AM 33.8 °F 26.4 °F 26.6 °F 75% 30.40 in 10.0 mi NE 9.2 mph - N/A   Clear
1:55 AM 33.8 °F 26.4 °F 28.4 °F 81% 30.39 in 10.0 mi NE 9.2 mph - N/A   Clear
2:15 AM 33.8 °F 26.4 °F 28.4 °F 81% 30.40 in 10.0 mi ENE 9.2 mph - N/A   Clear
2:35 AM 33.8 °F 26.4 °F 28.4 °F 81% 30.39 in 10.0 mi ENE 9.2 mph - N/A   Clear
2:55 AM 33.8 °F 26.4 °F 28.4 °F 81% 30.39 in 10.0 mi ENE 9.2 mph - N/A   Clear
3:15 AM 33.8 °F 27.7 °F 28.4 °F 81% 30.40 in 10.0 mi NE 6.9 mph - N/A   Clear
3:35 AM 33.8 °F 26.4 °F 28.4 °F 81% 30.40 in 10.0 mi ENE 9.2 mph - N/A   Clear
3:55 AM 33.8 °F 27.7 °F 28.4 °F 81% 30.40 in 10.0 mi NE 6.9 mph - N/A   Clear
4:15 AM 33.8 °F 28.6 °F 28.4 °F 81% 30.41 in 10.0 mi ENE 5.8 mph - N/A   Clear
4:35 AM 33.8 °F 29.6 °F 28.4 °F 81% 30.42 in 10.0 mi ENE 4.6 mph - N/A   Clear
4:55 AM 32.0 °F - 28.4 °F 87% 30.42 in 10.0 mi Calm Calm - N/A   Clear
5:15 AM 32.0 °F 28.7 °F 28.4 °F 87% 30.42 in 10.0 mi ESE 3.5 mph - N/A   Clear
5:35 AM 32.0 °F 27.5 °F 28.4 °F 87% 30.42 in 10.0 mi ESE 4.6 mph - N/A   Clear
5:55 AM 32.0 °F 28.7 °F 28.4 °F 87% 30.42 in 10.0 mi ESE 3.5 mph - N/A   Clear
6:15 AM 32.0 °F 28.7 °F 30.2 °F 93% 30.43 in 10.0 mi ESE 3.5 mph - N/A   Clear
6:35 AM 32.0 °F 27.5 °F 30.2 °F 93% 30.43 in 10.0 mi ESE 4.6 mph - N/A   Clear
6:55 AM 32.0 °F 28.7 °F 28.4 °F 87% 30.44 in 10.0 mi ESE 3.5 mph - N/A   Clear
7:15 AM 32.0 °F 28.7 °F 30.2 °F 93% 30.45 in 10.0 mi East 3.5 mph - N/A   Clear
7:35 AM 33.8 °F - 30.2 °F 87% 30.46 in 10.0 mi Calm Calm - N/A   Clear
7:55 AM 35.6 °F 30.7 °F 32.0 °F 87% 30.46 in 10.0 mi ENE 5.8 mph - N/A   Clear
8:15 AM 37.4 °F 31.4 °F 32.0 °F 81% 30.47 in 10.0 mi ENE 8.1 mph - N/A   Clear
8:35 AM 41.0 °F 35.8 °F 32.0 °F 70% 30.47 in 10.0 mi ENE 8.1 mph - N/A   Clear
8:55 AM 41.0 °F 35.8 °F 33.8 °F 76% 30.47 in 10.0 mi ENE 8.1 mph - N/A   Clear
9:15 AM 42.8 °F 38.0 °F 33.8 °F 70% 30.47 in 10.0 mi ENE 8.1 mph - N/A   Clear
9:35 AM 44.6 °F 40.7 °F 35.6 °F 71% 30.47 in 10.0 mi ENE 6.9 mph - N/A   Clear
9:55 AM 44.6 °F 39.7 °F 35.6 °F 71% 30.46 in 10.0 mi NE 9.2 mph - N/A   Clear
10:15 AM 46.4 °F 42.4 °F 35.6 °F 66% 30.46 in 10.0 mi NE 8.1 mph - N/A   Clear
10:35 AM 50.0 °F - 37.4 °F 62% 30.45 in 10.0 mi ENE 6.9 mph - N/A   Clear
11:15 AM 51.8 °F - 37.4 °F 58% 30.44 in 10.0 mi NE 8.1 mph - N/A   Clear
11:35 AM 53.6 °F - 39.2 °F 58% 30.44 in 10.0 mi ENE 6.9 mph - N/A   Clear
11:55 AM 53.6 °F - 39.2 °F 58% 30.43 in 10.0 mi NE 4.6 mph - N/A   Clear
12:15 PM 55.4 °F - 37.4 °F 51% 30.42 in 10.0 mi ENE 5.8 mph - N/A   Clear
12:35 PM 55.4 °F - 37.4 °F 51% 30.41 in 10.0 mi ENE 3.5 mph - N/A   Clear
12:55 PM 57.2 °F - 37.4 °F 48% 30.40 in 10.0 mi NE 3.5 mph - N/A   Clear
1:15 PM 59.0 °F - 37.4 °F 45% 30.39 in 10.0 mi NE 4.6 mph - N/A   Clear
1:35 PM 59.0 °F - 37.4 °F 45% 30.38 in 10.0 mi NE 5.8 mph - N/A   Clear
1:55 PM 60.8 °F - 37.4 °F 42% 30.38 in 10.0 mi NE 4.6 mph - N/A   Clear
2:15 PM 60.8 °F - 37.4 °F 42% 30.37 in 10.0 mi NE 4.6 mph - N/A   Clear
2:35 PM 60.8 °F - 37.4 °F 42% 30.37 in 7.0 mi ENE 3.5 mph - N/A   Clear
3:15 PM 60.8 °F - 37.4 °F 42% 30.37 in 7.0 mi ENE 4.6 mph - N/A   Clear
3:35 PM 60.8 °F - 39.2 °F 45% 30.37 in 5.0 mi ENE 5.8 mph - N/A   Haze
3:55 PM 60.8 °F - 39.2 °F 45% 30.37 in 4.0 mi ENE 4.6 mph - N/A   Haze
4:15 PM 60.8 °F - 37.4 °F 42% 30.37 in 3.0 mi ENE 4.6 mph - N/A   Haze
4:35 PM 59.0 °F - 41.0 °F 51% 30.37 in 3.0 mi NE 6.9 mph - N/A   Haze
4:55 PM 57.2 °F - 41.0 °F 55% 30.36 in 3.0 mi NE 6.9 mph - N/A   Haze
5:15 PM 55.4 °F - 41.0 °F 58% 30.36 in 3.0 mi NE 6.9 mph - N/A   Haze
5:35 PM 53.6 °F - 41.0 °F 62% 30.37 in 2.0 mi ENE 5.8 mph - N/A   Haze
5:55 PM 51.8 °F - 41.0 °F 67% 30.37 in 2.0 mi East 4.6 mph - N/A   Haze
6:15 PM 50.0 °F - 41.0 °F 71% 30.38 in 2.5 mi ENE 4.6 mph - N/A   Haze
6:35 PM 50.0 °F - 41.0 °F 71% 30.39 in 3.0 mi Calm Calm - N/A   Haze
6:55 PM 50.0 °F - 41.0 °F 71% 30.39 in 5.0 mi Calm Calm - N/A   Haze
7:15 PM 48.2 °F - 39.2 °F 71% 30.40 in 7.0 mi ENE 4.6 mph - N/A   Clear
7:35 PM 46.4 °F 45.2 °F 39.2 °F 76% 30.40 in 7.0 mi ENE 3.5 mph - N/A   Clear
7:55 PM 46.4 °F - 39.2 °F 76% 30.40 in 5.0 mi Calm Calm - N/A   Haze
8:15 PM 44.6 °F 43.1 °F 39.2 °F 81% 30.41 in 5.0 mi ENE 3.5 mph - N/A   Haze
8:35 PM 44.6 °F 42.2 °F 39.2 °F 81% 30.41 in 5.0 mi NE 4.6 mph - N/A   Haze
8:55 PM 44.6 °F - 39.2 °F 81% 30.41 in 7.0 mi Calm Calm - N/A   Clear
9:15 PM 44.6 °F 43.1 °F 39.2 °F 81% 30.41 in 5.0 mi ESE 3.5 mph - N/A   Haze
9:35 PM 42.8 °F 41.1 °F 37.4 °F 81% 30.41 in 5.0 mi ESE 3.5 mph - N/A   Haze
9:55 PM 42.8 °F - 37.4 °F 81% 30.42 in 7.0 mi Calm Calm - N/A   Clear
10:15 PM 42.8 °F - 37.4 °F 81% 30.42 in 10.0 mi Calm Calm - N/A   Clear
10:35 PM 37.4 °F - 35.6 °F 93% 30.41 in 5.0 mi Calm Calm - N/A   Clear
10:55 PM 37.4 °F - 35.6 °F 93% 30.41 in 3.0 mi Calm Calm - N/A   Clear